TimeCDT,TemperatureF,Dew PointF,Humidity,Sea Level PressureIn,VisibilityMPH,Wind Direction,Wind SpeedMPH,Gust SpeedMPH,PrecipitationIn,Events,Conditions,WindDirDegrees,DateUTC
12:08 AM,69.1,54.1,59,-9999,-9999.0,SSE,10.4,-,N/A,,Unknown,150,2013-09-04 05:08:00
12:28 AM,70.0,55.0,59,-9999,-9999.0,SSE,12.7,-,N/A,,Unknown,150,2013-09-04 05:28:00
12:48 AM,70.0,55.0,59,-9999,-9999.0,SSE,11.5,-,N/A,,Unknown,160,2013-09-04 05:48:00
1:08 AM,70.0,55.0,59,-9999,-9999.0,SSE,9.2,-,N/A,,Unknown,160,2013-09-04 06:08:00
1:28 AM,69.1,55.0,61,-9999,-9999.0,South,9.2,-,N/A,,Unknown,170,2013-09-04 06:28:00
1:48 AM,69.1,54.1,59,-9999,-9999.0,South,10.4,-,N/A,,Unknown,170,2013-09-04 06:48:00
2:08 AM,68.0,54.1,61,-9999,-9999.0,South,9.2,-,N/A,,Unknown,170,2013-09-04 07:08:00
2:28 AM,68.0,54.1,61,-9999,-9999.0,South,8.1,-,N/A,,Unknown,170,2013-09-04 07:28:00
2:48 AM,66.9,54.1,63,-9999,-9999.0,South,9.2,-,N/A,,Unknown,180,2013-09-04 07:48:00
3:08 AM,68.0,53.1,59,-9999,-9999.0,South,10.4,-,N/A,,Unknown,180,2013-09-04 08:08:00
3:28 AM,69.1,53.1,57,-9999,-9999.0,South,11.5,-,N/A,,Unknown,180,2013-09-04 08:28:00
3:48 AM,66.9,54.1,63,-9999,-9999.0,South,8.1,-,N/A,,Unknown,170,2013-09-04 08:48:00
4:08 AM,66.9,53.1,61,-9999,-9999.0,South,9.2,-,N/A,,Unknown,190,2013-09-04 09:08:00
4:28 AM,68.0,52.2,57,-9999,-9999.0,South,9.2,-,N/A,,Unknown,190,2013-09-04 09:28:00
4:48 AM,68.0,51.1,55,-9999,-9999.0,South,8.1,-,N/A,,Unknown,190,2013-09-04 09:48:00
5:08 AM,66.9,51.1,57,-9999,-9999.0,South,10.4,-,N/A,,Unknown,180,2013-09-04 10:08:00
5:28 AM,66.9,51.1,57,-9999,-9999.0,South,10.4,-,N/A,,Unknown,180,2013-09-04 10:28:00
5:48 AM,66.0,51.1,59,-9999,-9999.0,South,9.2,-,N/A,,Unknown,190,2013-09-04 10:48:00
6:08 AM,66.0,51.1,59,-9999,-9999.0,South,10.4,-,N/A,,Unknown,190,2013-09-04 11:08:00
6:28 AM,64.0,51.1,63,-9999,-9999.0,South,9.2,-,N/A,,Unknown,170,2013-09-04 11:28:00
6:48 AM,64.0,51.1,63,-9999,-9999.0,South,9.2,-,N/A,,Unknown,170,2013-09-04 11:48:00
7:08 AM,63.0,51.1,65,-9999,-9999.0,South,8.1,-,N/A,,Unknown,170,2013-09-04 12:08:00
7:28 AM,63.0,51.1,65,-9999,-9999.0,South,9.2,-,N/A,,Unknown,180,2013-09-04 12:28:00
7:48 AM,63.0,51.1,65,-9999,-9999.0,South,9.2,-,N/A,,Unknown,180,2013-09-04 12:48:00
8:08 AM,64.9,51.1,61,-9999,-9999.0,South,8.1,-,N/A,,Unknown,180,2013-09-04 13:08:00
8:28 AM,66.9,51.1,57,-9999,-9999.0,South,10.4,-,N/A,,Unknown,190,2013-09-04 13:28:00
8:48 AM,69.1,51.1,53,-9999,-9999.0,South,8.1,-,N/A,,Unknown,190,2013-09-04 13:48:00
9:08 AM,73.0,51.1,46,-9999,-9999.0,South,10.4,-,N/A,,Unknown,190,2013-09-04 14:08:00
9:28 AM,75.0,52.2,45,-9999,-9999.0,South,8.1,-,N/A,,Unknown,190,2013-09-04 14:28:00
9:48 AM,77.0,52.2,42,-9999,-9999.0,SSW,9.2,-,N/A,,Unknown,200,2013-09-04 14:48:00
10:08 AM,80.6,51.8,37,-9999,-9999.0,North,-9999.0,-,N/A,,Unknown,0,2013-09-04 15:08:00
10:28 AM,82.9,52.2,34,-9999,-9999.0,SW,11.5,-,N/A,,Unknown,220,2013-09-04 15:28:00
10:48 AM,84.9,51.1,31,-9999,-9999.0,SW,12.7,-,N/A,,Unknown,220,2013-09-04 15:48:00
11:08 AM,87.1,50.2,28,-9999,-9999.0,SSW,11.5,-,N/A,,Unknown,210,2013-09-04 16:08:00
11:28 AM,90.0,50.2,25,-9999,-9999.0,SW,11.5,-,N/A,,Unknown,220,2013-09-04 16:28:00
11:48 AM,91.0,49.1,24,-9999,-9999.0,SSW,10.4,-,N/A,,Unknown,210,2013-09-04 16:48:00
12:08 PM,93.0,50.2,23,-9999,-9999.0,SW,9.2,-,N/A,,Unknown,230,2013-09-04 17:08:00
12:28 PM,-9999,-9999,N/A,-9999,-9999.0,North,-9999.0,-,N/A,,Unknown,0,2013-09-04 17:28:00
12:48 PM,95.0,50.2,22,-9999,-9999.0,South,9.2,-,N/A,,Unknown,180,2013-09-04 17:48:00
1:08 PM,96.1,52.2,23,-9999,-9999.0,SSE,11.5,-,N/A,,Unknown,150,2013-09-04 18:08:00
1:28 PM,96.1,50.2,21,-9999,-9999.0,South,9.2,-,N/A,,Unknown,180,2013-09-04 18:28:00
1:48 PM,97.0,51.1,21,-9999,-9999.0,SSE,11.5,-,N/A,,Unknown,160,2013-09-04 18:48:00
2:08 PM,97.0,49.1,20,-9999,-9999.0,SSW,11.5,-,N/A,,Unknown,200,2013-09-04 19:08:00
2:28 PM,98.1,51.1,20,-9999,-9999.0,SSE,11.5,-,N/A,,Unknown,160,2013-09-04 19:28:00
2:48 PM,99.0,51.1,20,-9999,-9999.0,South,9.2,-,N/A,,Unknown,190,2013-09-04 19:48:00
3:08 PM,98.1,51.1,20,-9999,-9999.0,SSE,15.0,-,N/A,,Unknown,150,2013-09-04 20:08:00
3:28 PM,98.1,52.2,21,-9999,-9999.0,SSE,15.0,-,N/A,,Unknown,150,2013-09-04 20:28:00
3:48 PM,98.1,51.1,20,-9999,-9999.0,SSE,10.4,-,N/A,,Unknown,150,2013-09-04 20:48:00
4:08 PM,99.0,50.2,19,-9999,-9999.0,SSE,12.7,-,N/A,,Unknown,150,2013-09-04 21:08:00
4:28 PM,98.1,52.2,21,-9999,-9999.0,SSE,10.4,-,N/A,,Unknown,160,2013-09-04 21:28:00
4:48 PM,98.1,52.2,21,-9999,-9999.0,SSE,13.8,-,N/A,,Unknown,150,2013-09-04 21:48:00
5:08 PM,97.0,52.2,22,-9999,-9999.0,SSE,9.2,-,N/A,,Unknown,160,2013-09-04 22:08:00
5:28 PM,97.0,53.1,23,-9999,-9999.0,SSE,13.8,-,N/A,,Unknown,160,2013-09-04 22:28:00
5:48 PM,95.0,53.1,24,-9999,-9999.0,SSE,12.7,-,N/A,,Unknown,160,2013-09-04 22:48:00
6:08 PM,95.0,52.2,23,-9999,-9999.0,SE,13.8,-,N/A,,Unknown,140,2013-09-04 23:08:00
6:28 PM,93.9,51.1,23,-9999,-9999.0,SSE,10.4,-,N/A,,Unknown,150,2013-09-04 23:28:00
6:48 PM,93.0,52.2,25,-9999,-9999.0,SE,9.2,-,N/A,,Unknown,140,2013-09-04 23:48:00
7:08 PM,90.0,53.1,28,-9999,-9999.0,SSE,8.1,-,N/A,,Unknown,150,2013-09-05 00:08:00
7:28 PM,88.0,53.1,30,-9999,-9999.0,SSE,8.1,-,N/A,,Unknown,150,2013-09-05 00:28:00
7:48 PM,84.0,53.1,34,-9999,-9999.0,SE,8.1,-,N/A,,Unknown,140,2013-09-05 00:48:00
8:08 PM,82.0,51.1,34,-9999,-9999.0,SE,9.2,-,N/A,,Unknown,140,2013-09-05 01:08:00
8:28 PM,78.1,51.1,39,-9999,-9999.0,SE,9.2,-,N/A,,Unknown,140,2013-09-05 01:28:00
8:48 PM,77.0,51.1,40,-9999,-9999.0,SSE,9.2,-,N/A,,Unknown,150,2013-09-05 01:48:00
9:08 PM,75.0,51.1,43,-9999,-9999.0,SE,9.2,-,N/A,,Unknown,140,2013-09-05 02:08:00
9:28 PM,73.9,51.1,45,-9999,-9999.0,SE,8.1,-,N/A,,Unknown,140,2013-09-05 02:28:00
9:48 PM,72.0,51.1,48,-9999,-9999.0,SE,10.4,-,N/A,,Unknown,140,2013-09-05 02:48:00
10:08 PM,73.0,50.2,44,-9999,-9999.0,SE,10.4,-,N/A,,Unknown,140,2013-09-05 03:08:00
10:28 PM,73.0,50.2,44,-9999,-9999.0,SE,11.5,-,N/A,,Unknown,140,2013-09-05 03:28:00
10:48 PM,73.0,51.1,46,-9999,-9999.0,SE,11.5,-,N/A,,Unknown,140,2013-09-05 03:48:00
11:08 PM,72.0,52.2,50,-9999,-9999.0,SSE,10.4,-,N/A,,Unknown,150,2013-09-05 04:08:00
11:28 PM,71.1,52.2,51,-9999,-9999.0,SSE,11.5,-,N/A,,Unknown,150,2013-09-05 04:28:00
11:48 PM,70.0,52.2,53,-9999,-9999.0,SSE,9.2,-,N/A,,Unknown,150,2013-09-05 04:48:00